View from above orbital plane
|
View from above satellite
|
Ground track
|
The orbit data is extracted from the following two-line orbital elements,
1 10062U 77048B 21016.58496724 .00000172 00000-0 24087-4 0 9995
2 10062 28.4218 344.4085 0736177 310.8707 43.0267 13.36701040122047
Epoch (UTC): | 16 January 2021 14:02:21 |
Eccentricity: | 0.0736177 |
inclination: | 28.4218° |
perigee height: | 569 km |
apogee height: | 1674 km |
right ascension of ascending node: | 344.4085° |
argument of perigee: | 310.8707° |
revolutions per day: | 13.36701040 |
mean anomaly at epoch: | 43.0267° |
orbit number at epoch: | 12204 |
The dashed part of the orbit path shows where the satellite is in the earth's shadow,
|
|